Location: Ahstedt
(52.2048°N, 10.1060°E)
Time: 06:54:44
(UTC+00:00)

Cosmos 1140 Rocket - Pass Details

Date: 18 January 2026
Orbit: 739 x 763 km, 74.1° (Epoch: 18 February)

Event Time Altitude Azimuth Distance (km) Brightness Sun altitude
Rises 06:11:31 0° 234° (SW) 3,170 6.4 -10.0°
Reaches altitude 10° 06:14:05 10° 244° (WSW) 2,253 5.5 -9.6°
Maximum altitude 06:18:40 33° 308° (NW) 1,253 4.1 -9.0°
Drops below altitude 10° 06:23:18 10° 12° (NNE) 2,277 5.9 -8.3°
Sets 06:25:54 0° 22° (NNE) 3,209 6.7 -8.0°
